Погода в Луцке

Украина / Волынская область     50°44′50″N   25°19′31″E
темп.,
°C
ветер,
м/с
пор.,
м/с
влажн.,
%
обл.,
%
осадки,
мм/ч
давл.,
гПа
погр.,
м
17 сентября, пт
пт1700:00+19ю3862100 0.0 1012209
03:00+17юз4975100 0.0 1012251
06:00+16ююз2293100 0.1 101039
09:00+17юз1188100 0.2 100992
12:00+19ююв117969 0.3 1008440
15:00+22ююв116598 1.1 1006925
18:00+19с2382100 3.8 1005191
21:00+17св3697100 6.7 1005258
18 сентября, сб
сб1800:00+16всв2598100 9.9 1004342
03:00+13ссз81297100 24.4 1004535
06:00+12сз61197100 10.9 1006503
09:00+11сз5995100 13.1 1006482
12:00+11сз5994100 0.4 1007526
15:00+10зсз51093100 0.9 1008643
18:00+10сз4892100 0.3 1008684
21:00+8сз4891100 0.3 1009645
19 сентября, вс
вс1900:00+7зсз3790100 0.0 1009555
03:00+6з5790100 0.1 1008932
06:00+6з5793100 0.4 1008983
09:00+7зсз5893100 1.1 1008787
12:00+7зсз6892100 0.6 1009964
15:00+6зсз5991100 1.1 1010984
18:00+6зсз6993100 0.7 1010930
21:00+6зсз71195100 1.3 1010650
20 сентября, пн
пн2000:00+6зсз61196100 0.3 1011577
03:00+6сз61097100 0.4 1012542
06:00+6сз51097100 0.3 1013520
09:00+6сз5995100 0.3 1014583
12:00+6сз5890100 0.0 1016748
15:00+6сз5887100 0.1 1016953
18:00+6зсз4887100 0.1 1017690
21:00+5зсз4889100 0.1 1018581
21 сентября, вт
вт2100:00+5зсз4890100 0.0 1018582
03:00+5зсз5989100 0.0 1018670
06:00+4зсз4991100 0.0 1018982
09:00+4зсз4896100 0.3 1018781
12:00+4зсз51096100 0.3 1019880
15:00+5зсз61095100 0.8 1019978
18:00+5зсз61096100 0.1 1020908
21:00+6зсз51093100 0.2 1020829